Location: Cadeilhan
(42.8161°N, 0.3161°E)
Time: 04:27:42
(UTC+00:00)

Cosmos 2173 Rocket - Pass Details

Date: 18 February 2020
Orbit: 944 x 1002 km, 83.0° (Epoch: 09 April)

Event Time Altitude Azimuth Distance (km) Brightness Sun altitude
Rises 05:06:09 0° 354° (N) 3,714 7.0 -20.2°
Reaches altitude 10° 05:08:43 10° 357° (N) 2,754 6.3 -19.7°
Maximum altitude 05:15:01 69° 81° (E) 1,042 4.3 -18.5°
Drops below altitude 10° 05:21:10 10° 164° (SSE) 2,696 6.5 -17.4°
Sets 05:23:40 0° 167° (SSE) 3,630 7.2 -17.0°
